COSMOS 1275 DEB, 42131

Orbit data source: Space-Track

COSMOS 1275 DEB, 42131 is space debris in LEO originally from a launch on Thu, 04 Jun 1981 UTC launched from the Plesetsk Missile And Space Complex (PKMTR). Debris objects in space refer to the collection of defunct objects orbiting the Earth. Examples of debris include non-operational satellites, rocket bodies, and fragments generated from explosions, collisions, or faulty payload assembly.

Loading next visibility...
Identifier
42131, 1981-053QT
Orbit
LEO
Country
Flag of CISCIS
Related business
Manufacturer
Unknown
Mission
Spacecraft
Bus & Motor
Unknown
Mass
Unknown
Launch date (UTC)
1981-06-04 (44 years ago)
Launch vehicle
Unknown
Launch site
Plesetsk Missile And Space Complex (PKMTR)
Object type
Payload
Rocket body
Debris
Shape & HBR
Unknown
Radar Cross Section
Small (<0.1 m²)

Expand to show TLE details & history
Last TLE update: 11 months ago

TLE from 11 months ago
0 COSMOS 1275 DEB
1 42131U 81053QT  24301.30213918  .00033845  00000-0  98006-2 0  9993
2 42131  82.8749 135.1696 0019025 318.6456 221.6378 14.44175064568422
Epoch: 2024-10-27T07:15Z
TLE epoch observation values (Epoch: 2024-10-27T07:15:04.825Z)
Latitude
-0.25776°
Longitude
170.2869°
Altitude
757.906 km
Speed
7.47 km/s
True Right ascension
21h 00m 48s
True Declination
0° 15' 22"
Sunlit
Object was in daylight at epoch
Visualization orbit readout
Latitude
Unknown
Longitude
Unknown
Altitude
Unknown
Speed
Unknown
Apparent Right ascension
Unknown
Apparent Declination
Unknown
Sunlit
N/A
Visualization observer readout
Local Sidereal Time
15:27:49
Azimuth
Unknown
Elevation
Unknown
Doppler factor
Unknown
Orbital elements
Apogee altitude
755.339 km
Perigee altitude
728.248 km
Semi-major axis
7,119.931 km
Eccentricity
0.0019
Inclination
82.8749°
RAAN
135.1696°
Arg. of periapsis
318.6456°
True anomaly
221.49321°
Mean anomaly
221.6378°
Eccentric anomaly
221.56548°
Mean motion
3.61268 °/min
Orbital period
99.65 mins
BSTAR
0.0098006
Loading maneuver chart data...
Computing Atmospheric mass density...
Loading historical data...
Loading historical data...
Loading historical data...
Loading historical data...
Loading historical data...
Loading historical data...
Loading historical data...

Documentation

Showing up to 5 results
|